owner,sensor,date,latitude,longitude,vertical_datum,wind_speed,wind_to_direction,wind_speed_of_gust,qcFlag 
WAVCIS,ioos:station:WAVCIS:CSI03:3,2013-08-01T00:00:00Z,29.4412,-92.0613,10.0,4.622,263.0,,'11111222,11111222,99999999' 
WAVCIS,ioos:station:WAVCIS:CSI03:3,2013-08-01T01:00:00Z,29.4412,-92.0613,10.0,3.602,246.0,,'11111222,11111222,99999999' 
WAVCIS,ioos:station:WAVCIS:CSI03:3,2013-08-01T02:00:00Z,29.4412,-92.0613,10.0,3.851,243.0,,'11111222,11111222,99999999' 
WAVCIS,ioos:station:WAVCIS:CSI03:3,2013-08-01T03:00:00Z,29.4412,-92.0613,10.0,3.254,248.0,,'11111222,11111222,99999999' 
WAVCIS,ioos:station:WAVCIS:CSI03:3,2013-08-01T04:00:00Z,29.4412,-92.0613,10.0,3.272,240.0,,'11111222,11111222,99999999' 
WAVCIS,ioos:station:WAVCIS:CSI03:3,2013-08-01T05:00:00Z,29.4412,-92.0613,10.0,3.864,244.0,,'11111222,11111222,99999999' 
WAVCIS,ioos:station:WAVCIS:CSI03:3,2013-08-01T06:00:00Z,29.4412,-92.0613,10.0,2.954,241.0,,'11111222,11111222,99999999' 
WAVCIS,ioos:station:WAVCIS:CSI03:3,2013-08-01T07:00:00Z,29.4412,-92.0613,10.0,2.983,236.0,,'11111222,11111222,99999999' 
WAVCIS,ioos:station:WAVCIS:CSI03:3,2013-08-01T08:00:00Z,29.4412,-92.0613,10.0,2.917,240.0,,'11111222,11111222,99999999' 
WAVCIS,ioos:station:WAVCIS:CSI03:3,2013-08-01T09:00:00Z,29.4412,-92.0613,10.0,3.001,239.0,,'11111222,11111222,99999999' 
WAVCIS,ioos:station:WAVCIS:CSI03:3,2013-08-01T10:00:00Z,29.4412,-92.0613,10.0,2.931,250.0,,'11111222,11111222,99999999' 
WAVCIS,ioos:station:WAVCIS:CSI03:3,2013-08-01T11:00:00Z,29.4412,-92.0613,10.0,3.813,259.0,,'11111222,11111222,99999999' 
WAVCIS,ioos:station:WAVCIS:CSI03:3,2013-08-01T12:00:00Z,29.4412,-92.0613,10.0,5.253,261.0,,'11111222,11111222,99999999' 
WAVCIS,ioos:station:WAVCIS:CSI03:3,2013-08-01T13:00:00Z,29.4412,-92.0613,10.0,6.295,270.0,,'11111222,11111222,99999999' 
WAVCIS,ioos:station:WAVCIS:CSI03:3,2013-08-01T14:00:00Z,29.4412,-92.0613,10.0,5.655,280.0,,'11111222,11111222,99999999' 
WAVCIS,ioos:station:WAVCIS:CSI03:3,2013-08-01T15:00:00Z,29.4412,-92.0613,10.0,4.364,292.0,,'11111222,11111222,99999999' 
WAVCIS,ioos:station:WAVCIS:CSI03:3,2013-08-01T16:00:00Z,29.4412,-92.0613,10.0,5.34,287.0,,'11111222,11111222,99999999' 
WAVCIS,ioos:station:WAVCIS:CSI03:3,2013-08-01T17:00:00Z,29.4412,-92.0613,10.0,5.074,286.0,,'11111222,11111222,99999999' 
WAVCIS,ioos:station:WAVCIS:CSI03:3,2013-08-01T18:00:00Z,29.4412,-92.0613,10.0,5.363,275.0,,'11111222,11111222,99999999' 
WAVCIS,ioos:station:WAVCIS:CSI03:3,2013-08-01T19:00:00Z,29.4412,-92.0613,10.0,5.394,277.0,,'11111222,11111222,99999999' 
WAVCIS,ioos:station:WAVCIS:CSI03:3,2013-08-01T20:00:00Z,29.4412,-92.0613,10.0,4.795,279.0,,'11111222,11111222,99999999' 
WAVCIS,ioos:station:WAVCIS:CSI03:3,2013-08-01T21:00:00Z,29.4412,-92.0613,10.0,4.262,266.0,,'11111222,11111222,99999999' 
WAVCIS,ioos:station:WAVCIS:CSI03:3,2013-08-01T22:00:00Z,29.4412,-92.0613,10.0,2.704,256.0,,'11111222,11111222,99999999' 
WAVCIS,ioos:station:WAVCIS:CSI03:3,2013-08-01T23:00:00Z,29.4412,-92.0613,10.0,2.489,255.0,,'11111222,11111222,99999999' 
WAVCIS,ioos:station:WAVCIS:CSI03:3,2013-08-02T00:00:00Z,29.4412,-92.0613,10.0,2.008,242.0,,'11111222,11111222,99999999' 
WAVCIS,ioos:station:WAVCIS:CSI03:3,2013-08-02T01:00:00Z,29.4412,-92.0613,10.0,2.112,244.0,,'11111222,11111222,99999999' 
WAVCIS,ioos:station:WAVCIS:CSI03:3,2013-08-02T02:00:00Z,29.4412,-92.0613,10.0,1.971,244.0,,'11111222,11111222,99999999' 
WAVCIS,ioos:station:WAVCIS:CSI03:3,2013-08-02T03:00:00Z,29.4412,-92.0613,10.0,2.413,255.0,,'11111222,11111222,99999999' 
WAVCIS,ioos:station:WAVCIS:CSI03:3,2013-08-02T04:00:00Z,29.4412,-92.0613,10.0,4.096,259.0,,'11111222,11111222,99999999' 
WAVCIS,ioos:station:WAVCIS:CSI03:3,2013-08-02T05:00:00Z,29.4412,-92.0613,10.0,4.591,261.0,,'11111222,11111222,99999999' 
WAVCIS,ioos:station:WAVCIS:CSI03:3,2013-08-02T06:00:00Z,29.4412,-92.0613,10.0,2.453,251.0,,'11111222,11111222,99999999' 
WAVCIS,ioos:station:WAVCIS:CSI03:3,2013-08-02T07:00:00Z,29.4412,-92.0613,10.0,4.704,266.0,,'11111222,11111222,99999999' 
WAVCIS,ioos:station:WAVCIS:CSI03:3,2013-08-02T08:00:00Z,29.4412,-92.0613,10.0,4.29,263.0,,'11111222,11111222,99999999' 
WAVCIS,ioos:station:WAVCIS:CSI03:3,2013-08-02T09:00:00Z,29.4412,-92.0613,10.0,4.521,264.0,,'11111222,11111222,99999999' 
WAVCIS,ioos:station:WAVCIS:CSI03:3,2013-08-02T10:00:00Z,29.4412,-92.0613,10.0,4.725,272.0,,'11111222,11111222,99999999' 
WAVCIS,ioos:station:WAVCIS:CSI03:3,2013-08-02T11:00:00Z,29.4412,-92.0613,10.0,4.179,280.0,,'11111222,11111222,99999999' 
WAVCIS,ioos:station:WAVCIS:CSI03:3,2013-08-02T12:00:00Z,29.4412,-92.0613,10.0,3.025,304.0,,'11111222,11111222,99999999' 
WAVCIS,ioos:station:WAVCIS:CSI03:3,2013-08-02T13:00:00Z,29.4412,-92.0613,10.0,4.819,333.0,,'11111222,11111222,99999999' 
WAVCIS,ioos:station:WAVCIS:CSI03:3,2013-08-02T14:00:00Z,29.4412,-92.0613,10.0,3.093,330.0,,'11111222,11111222,99999999' 
WAVCIS,ioos:station:WAVCIS:CSI03:3,2013-08-02T15:00:00Z,29.4412,-92.0613,10.0,3.585,330.0,,'11111222,11111222,99999999' 
WAVCIS,ioos:station:WAVCIS:CSI03:3,2013-08-02T16:00:00Z,29.4412,-92.0613,10.0,0.502,14.0,,'11111222,11111222,99999999' 
WAVCIS,ioos:station:WAVCIS:CSI03:3,2013-08-02T17:00:00Z,29.4412,-92.0613,10.0,1.186,263.0,,'11111222,11111222,99999999' 
WAVCIS,ioos:station:WAVCIS:CSI03:3,2013-08-02T18:00:00Z,29.4412,-92.0613,10.0,2.421,259.0,,'11111222,11111222,99999999' 
WAVCIS,ioos:station:WAVCIS:CSI03:3,2013-08-02T19:00:00Z,29.4412,-92.0613,10.0,2.035,235.0,,'11111222,11111222,99999999' 
WAVCIS,ioos:station:WAVCIS:CSI03:3,2013-08-02T20:00:00Z,29.4412,-92.0613,10.0,1.685,248.0,,'11111222,11111222,99999999' 
WAVCIS,ioos:station:WAVCIS:CSI03:3,2013-08-02T21:00:00Z,29.4412,-92.0613,10.0,3.874,263.0,,'11111222,11111222,99999999' 
WAVCIS,ioos:station:WAVCIS:CSI03:3,2013-08-02T22:00:00Z,29.4412,-92.0613,10.0,2.165,256.0,,'11111222,11111222,99999999' 
WAVCIS,ioos:station:WAVCIS:CSI03:3,2013-08-02T23:00:00Z,29.4412,-92.0613,10.0,1.821,247.0,,'11111222,11111222,99999999' 
WAVCIS,ioos:station:WAVCIS:CSI03:3,2013-08-03T00:00:00Z,29.4412,-92.0613,10.0,1.719,250.0,,'11111222,11111222,99999999' 
WAVCIS,ioos:station:WAVCIS:CSI03:3,2013-08-03T01:00:00Z,29.4412,-92.0613,10.0,2.057,239.0,,'11111222,11111222,99999999' 
WAVCIS,ioos:station:WAVCIS:CSI03:3,2013-08-03T02:00:00Z,29.4412,-92.0613,10.0,2.228,238.0,,'11111222,11111222,99999999' 
WAVCIS,ioos:station:WAVCIS:CSI03:3,2013-08-03T03:00:00Z,29.4412,-92.0613,10.0,2.222,233.0,,'11111222,11111222,99999999' 
WAVCIS,ioos:station:WAVCIS:CSI03:3,2013-08-03T04:00:00Z,29.4412,-92.0613,10.0,2.114,206.0,,'11111222,11111222,99999999' 
WAVCIS,ioos:station:WAVCIS:CSI03:3,2013-08-03T05:00:00Z,29.4412,-92.0613,10.0,1.885,231.0,,'11111222,11111222,99999999' 
WAVCIS,ioos:station:WAVCIS:CSI03:3,2013-08-03T06:00:00Z,29.4412,-92.0613,10.0,1.419,224.0,,'11111222,11111222,99999999' 
WAVCIS,ioos:station:WAVCIS:CSI03:3,2013-08-03T07:00:00Z,29.4412,-92.0613,10.0,2.187,200.0,,'11111222,11111222,99999999' 
WAVCIS,ioos:station:WAVCIS:CSI03:3,2013-08-03T08:00:00Z,29.4412,-92.0613,10.0,1.694,221.0,,'11111222,11111222,99999999' 
WAVCIS,ioos:station:WAVCIS:CSI03:3,2013-08-03T09:00:00Z,29.4412,-92.0613,10.0,1.616,227.0,,'11111222,11111222,99999999' 
WAVCIS,ioos:station:WAVCIS:CSI03:3,2013-08-03T10:00:00Z,29.4412,-92.0613,10.0,1.667,231.0,,'11111222,11111222,99999999' 
WAVCIS,ioos:station:WAVCIS:CSI03:3,2013-08-03T11:00:00Z,29.4412,-92.0613,10.0,1.813,237.0,,'11111222,11111222,99999999' 
WAVCIS,ioos:station:WAVCIS:CSI03:3,2013-08-03T12:00:00Z,29.4412,-92.0613,10.0,2.018,254.0,,'11111222,11111222,99999999' 
WAVCIS,ioos:station:WAVCIS:CSI03:3,2013-08-03T13:00:00Z,29.4412,-92.0613,10.0,2.988,261.0,,'11111222,11111222,99999999' 
WAVCIS,ioos:station:WAVCIS:CSI03:3,2013-08-03T14:00:00Z,29.4412,-92.0613,10.0,3.372,279.0,,'11111222,11111222,99999999' 
WAVCIS,ioos:station:WAVCIS:CSI03:3,2013-08-03T15:00:00Z,29.4412,-92.0613,10.0,3.823,282.0,,'11111222,11111222,99999999' 
WAVCIS,ioos:station:WAVCIS:CSI03:3,2013-08-03T16:00:00Z,29.4412,-92.0613,10.0,3.109,279.0,,'11111222,11111222,99999999' 
WAVCIS,ioos:station:WAVCIS:CSI03:3,2013-08-03T17:00:00Z,29.4412,-92.0613,10.0,1.762,185.0,,'11111222,11111222,99999999' 
WAVCIS,ioos:station:WAVCIS:CSI03:3,2013-08-03T18:00:00Z,29.4412,-92.0613,10.0,0.874,244.0,,'11111222,11111222,99999999' 
WAVCIS,ioos:station:WAVCIS:CSI03:3,2013-08-03T19:00:00Z,29.4412,-92.0613,10.0,1.092,222.0,,'11111222,11111222,99999999' 
WAVCIS,ioos:station:WAVCIS:CSI03:3,2013-08-03T20:00:00Z,29.4412,-92.0613,10.0,1.803,236.0,,'11111222,11111222,99999999' 
WAVCIS,ioos:station:WAVCIS:CSI03:3,2013-08-03T21:00:00Z,29.4412,-92.0613,10.0,1.804,237.0,,'11111222,11111222,99999999' 
WAVCIS,ioos:station:WAVCIS:CSI03:3,2013-08-03T22:00:00Z,29.4412,-92.0613,10.0,2.085,234.0,,'11111222,11111222,99999999' 
WAVCIS,ioos:station:WAVCIS:CSI03:3,2013-08-03T23:00:00Z,29.4412,-92.0613,10.0,2.084,238.0,,'11111222,11111222,99999999' 
WAVCIS,ioos:station:WAVCIS:CSI03:3,2013-08-04T00:00:00Z,29.4412,-92.0613,10.0,1.363,229.0,,'11111222,11111222,99999999' 
WAVCIS,ioos:station:WAVCIS:CSI03:3,2013-08-04T01:00:00Z,29.4412,-92.0613,10.0,1.402,223.0,,'11111222,11111222,99999999' 
WAVCIS,ioos:station:WAVCIS:CSI03:3,2013-08-04T02:00:00Z,29.4412,-92.0613,10.0,1.31,214.0,,'11111222,11111222,99999999' 
WAVCIS,ioos:station:WAVCIS:CSI03:3,2013-08-04T03:00:00Z,29.4412,-92.0613,10.0,1.856,213.0,,'11111222,11111222,99999999' 
WAVCIS,ioos:station:WAVCIS:CSI03:3,2013-08-04T04:00:00Z,29.4412,-92.0613,10.0,2.138,196.0,,'11111222,11111222,99999999' 
WAVCIS,ioos:station:WAVCIS:CSI03:3,2013-08-04T05:00:00Z,29.4412,-92.0613,10.0,2.389,203.0,,'11111222,11111222,99999999' 
WAVCIS,ioos:station:WAVCIS:CSI03:3,2013-08-04T06:00:00Z,29.4412,-92.0613,10.0,1.746,220.0,,'11111222,11111222,99999999' 
WAVCIS,ioos:station:WAVCIS:CSI03:3,2013-08-04T07:00:00Z,29.4412,-92.0613,10.0,1.787,221.0,,'11111222,11111222,99999999' 
WAVCIS,ioos:station:WAVCIS:CSI03:3,2013-08-04T08:00:00Z,29.4412,-92.0613,10.0,2.199,230.0,,'11111222,11111222,99999999' 
WAVCIS,ioos:station:WAVCIS:CSI03:3,2013-08-04T09:00:00Z,29.4412,-92.0613,10.0,1.947,235.0,,'11111222,11111222,99999999' 
WAVCIS,ioos:station:WAVCIS:CSI03:3,2013-08-04T10:00:00Z,29.4412,-92.0613,10.0,1.94,255.0,,'11111222,11111222,99999999' 
WAVCIS,ioos:station:WAVCIS:CSI03:3,2013-08-04T11:00:00Z,29.4412,-92.0613,10.0,1.618,253.0,,'11111222,11111222,99999999' 
WAVCIS,ioos:station:WAVCIS:CSI03:3,2013-08-04T12:00:00Z,29.4412,-92.0613,10.0,1.958,252.0,,'11111222,11111222,99999999' 
WAVCIS,ioos:station:WAVCIS:CSI03:3,2013-08-04T13:00:00Z,29.4412,-92.0613,10.0,3.97,306.0,,'11111222,11111222,99999999' 
WAVCIS,ioos:station:WAVCIS:CSI03:3,2013-08-04T14:00:00Z,29.4412,-92.0613,10.0,3.456,334.0,,'11111222,11111222,99999999' 
WAVCIS,ioos:station:WAVCIS:CSI03:3,2013-08-04T15:00:00Z,29.4412,-92.0613,10.0,2.335,322.0,,'11111222,11111222,99999999' 
WAVCIS,ioos:station:WAVCIS:CSI03:3,2013-08-04T16:00:00Z,29.4412,-92.0613,10.0,1.486,317.0,,'11111222,11111222,99999999' 
WAVCIS,ioos:station:WAVCIS:CSI03:3,2013-08-04T17:00:00Z,29.4412,-92.0613,10.0,2.059,267.0,,'11111222,11111222,99999999' 
WAVCIS,ioos:station:WAVCIS:CSI03:3,2013-08-04T18:00:00Z,29.4412,-92.0613,10.0,5.269,5.0,,'11111222,11111222,99999999' 
WAVCIS,ioos:station:WAVCIS:CSI03:3,2013-08-04T19:00:00Z,29.4412,-92.0613,10.0,1.294,23.0,,'11111222,11111222,99999999' 
WAVCIS,ioos:station:WAVCIS:CSI03:3,2013-08-04T20:00:00Z,29.4412,-92.0613,10.0,1.314,235.0,,'11111222,11111222,99999999' 
WAVCIS,ioos:station:WAVCIS:CSI03:3,2013-08-04T21:00:00Z,29.4412,-92.0613,10.0,1.771,251.0,,'11111222,11111222,99999999' 
WAVCIS,ioos:station:WAVCIS:CSI03:3,2013-08-04T22:00:00Z,29.4412,-92.0613,10.0,3.201,261.0,,'11111222,11111222,99999999' 
WAVCIS,ioos:station:WAVCIS:CSI03:3,2013-08-04T23:00:00Z,29.4412,-92.0613,10.0,2.313,251.0,,'11111222,11111222,99999999' 
WAVCIS,ioos:station:WAVCIS:CSI03:3,2013-08-05T00:00:00Z,29.4412,-92.0613,10.0,3.098,268.0,,'11111222,11111222,99999999' 
WAVCIS,ioos:station:WAVCIS:CSI03:3,2013-08-05T01:00:00Z,29.4412,-92.0613,10.0,3.511,262.0,,'11111222,11111222,99999999' 
WAVCIS,ioos:station:WAVCIS:CSI03:3,2013-08-05T02:00:00Z,29.4412,-92.0613,10.0,3.551,263.0,,'11111222,11111222,99999999' 
WAVCIS,ioos:station:WAVCIS:CSI03:3,2013-08-05T03:00:00Z,29.4412,-92.0613,10.0,1.643,242.0,,'11111222,11111222,99999999' 
WAVCIS,ioos:station:WAVCIS:CSI03:3,2013-08-05T04:00:00Z,29.4412,-92.0613,10.0,1.929,235.0,,'11111222,11111222,99999999' 
WAVCIS,ioos:station:WAVCIS:CSI03:3,2013-08-05T05:00:00Z,29.4412,-92.0613,10.0,1.675,245.0,,'11111222,11111222,99999999' 
WAVCIS,ioos:station:WAVCIS:CSI03:3,2013-08-05T06:00:00Z,29.4412,-92.0613,10.0,1.813,243.0,,'11111222,11111222,99999999' 
WAVCIS,ioos:station:WAVCIS:CSI03:3,2013-08-05T07:00:00Z,29.4412,-92.0613,10.0,2.354,249.0,,'11111222,11111222,99999999' 
WAVCIS,ioos:station:WAVCIS:CSI03:3,2013-08-05T08:00:00Z,29.4412,-92.0613,10.0,4.621,263.0,,'11111222,11111222,99999999' 
WAVCIS,ioos:station:WAVCIS:CSI03:3,2013-08-05T09:00:00Z,29.4412,-92.0613,10.0,5.452,265.0,,'11111222,11111222,99999999' 
WAVCIS,ioos:station:WAVCIS:CSI03:3,2013-08-05T10:00:00Z,29.4412,-92.0613,10.0,3.896,260.0,,'11111222,11111222,99999999' 
WAVCIS,ioos:station:WAVCIS:CSI03:3,2013-08-05T11:00:00Z,29.4412,-92.0613,10.0,5.572,271.0,,'11111222,11111222,99999999' 
WAVCIS,ioos:station:WAVCIS:CSI03:3,2013-08-05T12:00:00Z,29.4412,-92.0613,10.0,5.892,284.0,,'11111222,11111222,99999999' 
WAVCIS,ioos:station:WAVCIS:CSI03:3,2013-08-05T13:00:00Z,29.4412,-92.0613,10.0,4.1,293.0,,'11111222,11111222,99999999' 
WAVCIS,ioos:station:WAVCIS:CSI03:3,2013-08-05T14:00:00Z,29.4412,-92.0613,10.0,3.671,288.0,,'11111222,11111222,99999999' 
WAVCIS,ioos:station:WAVCIS:CSI03:3,2013-08-05T15:00:00Z,29.4412,-92.0613,10.0,3.593,292.0,,'11111222,11111222,99999999' 
WAVCIS,ioos:station:WAVCIS:CSI03:3,2013-08-05T16:00:00Z,29.4412,-92.0613,10.0,4.571,324.0,,'11111222,11111222,99999999' 
WAVCIS,ioos:station:WAVCIS:CSI03:3,2013-08-05T17:00:00Z,29.4412,-92.0613,10.0,2.002,294.0,,'11111222,11111222,99999999' 
WAVCIS,ioos:station:WAVCIS:CSI03:3,2013-08-05T18:00:00Z,29.4412,-92.0613,10.0,5.533,272.0,,'11111222,11111222,99999999' 
WAVCIS,ioos:station:WAVCIS:CSI03:3,2013-08-05T19:00:00Z,29.4412,-92.0613,10.0,5.889,277.0,,'11111222,11111222,99999999' 
WAVCIS,ioos:station:WAVCIS:CSI03:3,2013-08-05T20:00:00Z,29.4412,-92.0613,10.0,5.429,264.0,,'11111222,11111222,99999999' 
WAVCIS,ioos:station:WAVCIS:CSI03:3,2013-08-05T21:00:00Z,29.4412,-92.0613,10.0,4.988,261.0,,'11111222,11111222,99999999' 
WAVCIS,ioos:station:WAVCIS:CSI03:3,2013-08-05T22:00:00Z,29.4412,-92.0613,10.0,4.954,266.0,,'11111222,11111222,99999999' 
WAVCIS,ioos:station:WAVCIS:CSI03:3,2013-08-05T23:00:00Z,29.4412,-92.0613,10.0,4.584,260.0,,'11111222,11111222,99999999' 
WAVCIS,ioos:station:WAVCIS:CSI03:3,2013-08-06T00:00:00Z,29.4412,-92.0613,10.0,2.489,251.0,,'11111222,11111222,99999999' 
WAVCIS,ioos:station:WAVCIS:CSI03:3,2013-08-06T01:00:00Z,29.4412,-92.0613,10.0,1.975,250.0,,'11111222,11111222,99999999' 
WAVCIS,ioos:station:WAVCIS:CSI03:3,2013-08-06T02:00:00Z,29.4412,-92.0613,10.0,2.318,246.0,,'11111222,11111222,99999999' 
WAVCIS,ioos:station:WAVCIS:CSI03:3,2013-08-06T03:00:00Z,29.4412,-92.0613,10.0,2.67,240.0,,'11111222,11111222,99999999' 
WAVCIS,ioos:station:WAVCIS:CSI03:3,2013-08-06T04:00:00Z,29.4412,-92.0613,10.0,2.937,253.0,,'11111222,11111222,99999999' 
WAVCIS,ioos:station:WAVCIS:CSI03:3,2013-08-06T05:00:00Z,29.4412,-92.0613,10.0,3.366,256.0,,'11111222,11111222,99999999' 
WAVCIS,ioos:station:WAVCIS:CSI03:3,2013-08-06T06:00:00Z,29.4412,-92.0613,10.0,2.472,239.0,,'11111222,11111222,99999999' 
WAVCIS,ioos:station:WAVCIS:CSI03:3,2013-08-06T07:00:00Z,29.4412,-92.0613,10.0,2.343,244.0,,'11111222,11111222,99999999' 
WAVCIS,ioos:station:WAVCIS:CSI03:3,2013-08-06T08:00:00Z,29.4412,-92.0613,10.0,4.148,254.0,,'11111222,11111222,99999999' 
WAVCIS,ioos:station:WAVCIS:CSI03:3,2013-08-06T09:00:00Z,29.4412,-92.0613,10.0,4.517,253.0,,'11111222,11111222,99999999' 
WAVCIS,ioos:station:WAVCIS:CSI03:3,2013-08-06T10:00:00Z,29.4412,-92.0613,10.0,3.468,253.0,,'11111222,11111222,99999999' 
WAVCIS,ioos:station:WAVCIS:CSI03:3,2013-08-06T11:00:00Z,29.4412,-92.0613,10.0,3.343,253.0,,'11111222,11111222,99999999' 
WAVCIS,ioos:station:WAVCIS:CSI03:3,2013-08-06T12:00:00Z,29.4412,-92.0613,10.0,5.899,265.0,,'11111222,11111222,99999999' 
WAVCIS,ioos:station:WAVCIS:CSI03:3,2013-08-06T13:00:00Z,29.4412,-92.0613,10.0,5.529,271.0,,'11111222,11111222,99999999' 
WAVCIS,ioos:station:WAVCIS:CSI03:3,2013-08-06T14:00:00Z,29.4412,-92.0613,10.0,5.67,274.0,,'11111222,11111222,99999999' 
WAVCIS,ioos:station:WAVCIS:CSI03:3,2013-08-06T15:00:00Z,29.4412,-92.0613,10.0,5.826,271.0,,'11111222,11111222,99999999' 
WAVCIS,ioos:station:WAVCIS:CSI03:3,2013-08-06T16:00:00Z,29.4412,-92.0613,10.0,5.354,279.0,,'11111222,11111222,99999999' 
WAVCIS,ioos:station:WAVCIS:CSI03:3,2013-08-06T17:00:00Z,29.4412,-92.0613,10.0,5.092,276.0,,'11111222,11111222,99999999' 
WAVCIS,ioos:station:WAVCIS:CSI03:3,2013-08-06T18:00:00Z,29.4412,-92.0613,10.0,5.157,273.0,,'11111222,11111222,99999999' 
WAVCIS,ioos:station:WAVCIS:CSI03:3,2013-08-06T19:00:00Z,29.4412,-92.0613,10.0,4.423,259.0,,'11111222,11111222,99999999' 
WAVCIS,ioos:station:WAVCIS:CSI03:3,2013-08-06T20:00:00Z,29.4412,-92.0613,10.0,2.953,255.0,,'11111222,11111222,99999999' 
WAVCIS,ioos:station:WAVCIS:CSI03:3,2013-08-06T21:00:00Z,29.4412,-92.0613,10.0,1.915,251.0,,'11111222,11111222,99999999' 
WAVCIS,ioos:station:WAVCIS:CSI03:3,2013-08-06T22:00:00Z,29.4412,-92.0613,10.0,2.942,253.0,,'11111222,11111222,99999999' 
WAVCIS,ioos:station:WAVCIS:CSI03:3,2013-08-06T23:00:00Z,29.4412,-92.0613,10.0,3.391,255.0,,'11111222,11111222,99999999' 
WAVCIS,ioos:station:WAVCIS:CSI03:3,2013-08-07T00:00:00Z,29.4412,-92.0613,10.0,3.113,252.0,,'11111222,11111222,99999999' 
WAVCIS,ioos:station:WAVCIS:CSI03:3,2013-08-07T01:00:00Z,29.4412,-92.0613,10.0,2.293,245.0,,'11111222,11111222,99999999' 
WAVCIS,ioos:station:WAVCIS:CSI03:3,2013-08-07T02:00:00Z,29.4412,-92.0613,10.0,2.339,250.0,,'11111222,11111222,99999999' 
WAVCIS,ioos:station:WAVCIS:CSI03:3,2013-08-07T03:00:00Z,29.4412,-92.0613,10.0,2.276,246.0,,'11111222,11111222,99999999' 
WAVCIS,ioos:station:WAVCIS:CSI03:3,2013-08-07T04:00:00Z,29.4412,-92.0613,10.0,2.581,249.0,,'11111222,11111222,99999999' 
WAVCIS,ioos:station:WAVCIS:CSI03:3,2013-08-07T05:00:00Z,29.4412,-92.0613,10.0,1.684,243.0,,'11111222,11111222,99999999' 
WAVCIS,ioos:station:WAVCIS:CSI03:3,2013-08-07T06:00:00Z,29.4412,-92.0613,10.0,1.853,238.0,,'11111222,11111222,99999999' 
WAVCIS,ioos:station:WAVCIS:CSI03:3,2013-08-07T07:00:00Z,29.4412,-92.0613,10.0,1.823,243.0,,'11111222,11111222,99999999' 
WAVCIS,ioos:station:WAVCIS:CSI03:3,2013-08-07T08:00:00Z,29.4412,-92.0613,10.0,2.062,248.0,,'11111222,11111222,99999999' 
WAVCIS,ioos:station:WAVCIS:CSI03:3,2013-08-07T09:00:00Z,29.4412,-92.0613,10.0,3.088,252.0,,'11111222,11111222,99999999' 
WAVCIS,ioos:station:WAVCIS:CSI03:3,2013-08-07T10:00:00Z,29.4412,-92.0613,10.0,4.173,255.0,,'11111222,11111222,99999999' 
WAVCIS,ioos:station:WAVCIS:CSI03:3,2013-08-07T11:00:00Z,29.4412,-92.0613,10.0,4.309,259.0,,'11111222,11111222,99999999' 
WAVCIS,ioos:station:WAVCIS:CSI03:3,2013-08-07T12:00:00Z,29.4412,-92.0613,10.0,5.628,271.0,,'11111222,11111222,99999999' 
WAVCIS,ioos:station:WAVCIS:CSI03:3,2013-08-07T13:00:00Z,29.4412,-92.0613,10.0,5.691,264.0,,'11111222,11111222,99999999' 
WAVCIS,ioos:station:WAVCIS:CSI03:3,2013-08-07T14:00:00Z,29.4412,-92.0613,10.0,2.167,250.0,,'11111222,11111222,99999999' 
WAVCIS,ioos:station:WAVCIS:CSI03:3,2013-08-07T15:00:00Z,29.4412,-92.0613,10.0,4.088,264.0,,'11111222,11111222,99999999' 
WAVCIS,ioos:station:WAVCIS:CSI03:3,2013-08-07T16:00:00Z,29.4412,-92.0613,10.0,4.934,284.0,,'11111222,11111222,99999999' 
WAVCIS,ioos:station:WAVCIS:CSI03:3,2013-08-07T17:00:00Z,29.4412,-92.0613,10.0,2.63,311.0,,'11111222,11111222,99999999' 
WAVCIS,ioos:station:WAVCIS:CSI03:3,2013-08-07T18:00:00Z,29.4412,-92.0613,10.0,4.263,274.0,,'11111222,11111222,99999999' 
WAVCIS,ioos:station:WAVCIS:CSI03:3,2013-08-07T19:00:00Z,29.4412,-92.0613,10.0,5.34,268.0,,'11111222,11111222,99999999' 
WAVCIS,ioos:station:WAVCIS:CSI03:3,2013-08-07T20:00:00Z,29.4412,-92.0613,10.0,4.094,259.0,,'11111222,11111222,99999999' 
WAVCIS,ioos:station:WAVCIS:CSI03:3,2013-08-07T21:00:00Z,29.4412,-92.0613,10.0,3.215,253.0,,'11111222,11111222,99999999' 
WAVCIS,ioos:station:WAVCIS:CSI03:3,2013-08-07T22:00:00Z,29.4412,-92.0613,10.0,3.487,252.0,,'11111222,11111222,99999999' 
WAVCIS,ioos:station:WAVCIS:CSI03:3,2013-08-07T23:00:00Z,29.4412,-92.0613,10.0,3.575,255.0,,'11111222,11111222,99999999' 
WAVCIS,ioos:station:WAVCIS:CSI03:3,2013-08-08T00:00:00Z,29.4412,-92.0613,10.0,3.543,251.0,,'11111222,11111222,99999999' 
WAVCIS,ioos:station:WAVCIS:CSI03:3,2013-08-08T01:00:00Z,29.4412,-92.0613,10.0,3.498,246.0,,'11111222,11111222,99999999' 
WAVCIS,ioos:station:WAVCIS:CSI03:3,2013-08-08T02:00:00Z,29.4412,-92.0613,10.0,3.226,252.0,,'11111222,11111222,99999999' 
WAVCIS,ioos:station:WAVCIS:CSI03:3,2013-08-08T03:00:00Z,29.4412,-92.0613,10.0,3.322,244.0,,'11111222,11111222,99999999' 
WAVCIS,ioos:station:WAVCIS:CSI03:3,2013-08-08T04:00:00Z,29.4412,-92.0613,10.0,3.514,248.0,,'11111222,11111222,99999999' 
WAVCIS,ioos:station:WAVCIS:CSI03:3,2013-08-08T05:00:00Z,29.4412,-92.0613,10.0,3.348,252.0,,'11111222,11111222,99999999' 
WAVCIS,ioos:station:WAVCIS:CSI03:3,2013-08-08T06:00:00Z,29.4412,-92.0613,10.0,3.492,243.0,,'11111222,11111222,99999999' 
WAVCIS,ioos:station:WAVCIS:CSI03:3,2013-08-08T07:00:00Z,29.4412,-92.0613,10.0,2.164,237.0,,'11111222,11111222,99999999' 
WAVCIS,ioos:station:WAVCIS:CSI03:3,2013-08-08T08:00:00Z,29.4412,-92.0613,10.0,2.775,241.0,,'11111222,11111222,99999999' 
WAVCIS,ioos:station:WAVCIS:CSI03:3,2013-08-08T09:00:00Z,29.4412,-92.0613,10.0,2.96,246.0,,'11111222,11111222,99999999' 
WAVCIS,ioos:station:WAVCIS:CSI03:3,2013-08-08T10:00:00Z,29.4412,-92.0613,10.0,2.2,249.0,,'11111222,11111222,99999999' 
WAVCIS,ioos:station:WAVCIS:CSI03:3,2013-08-08T11:00:00Z,29.4412,-92.0613,10.0,2.883,277.0,,'11111222,11111222,99999999' 
WAVCIS,ioos:station:WAVCIS:CSI03:3,2013-08-08T12:00:00Z,29.4412,-92.0613,10.0,2.549,280.0,,'11111222,11111222,99999999' 
WAVCIS,ioos:station:WAVCIS:CSI03:3,2013-08-08T13:00:00Z,29.4412,-92.0613,10.0,1.8,291.0,,'11111222,11111222,99999999' 
WAVCIS,ioos:station:WAVCIS:CSI03:3,2013-08-08T14:00:00Z,29.4412,-92.0613,10.0,1.007,337.0,,'11111222,11111222,99999999' 
WAVCIS,ioos:station:WAVCIS:CSI03:3,2013-08-08T15:00:00Z,29.4412,-92.0613,10.0,1.09,357.0,,'11111222,11111222,99999999' 
WAVCIS,ioos:station:WAVCIS:CSI03:3,2013-08-08T16:00:00Z,29.4412,-92.0613,10.0,1.053,334.0,,'11111222,11111222,99999999' 
WAVCIS,ioos:station:WAVCIS:CSI03:3,2013-08-08T17:00:00Z,29.4412,-92.0613,10.0,0.71,333.0,,'11111222,11111222,99999999' 
WAVCIS,ioos:station:WAVCIS:CSI03:3,2013-08-08T18:00:00Z,29.4412,-92.0613,10.0,1.075,182.0,,'11111222,11111222,99999999' 
WAVCIS,ioos:station:WAVCIS:CSI03:3,2013-08-08T19:00:00Z,29.4412,-92.0613,10.0,1.079,183.0,,'11111222,11111222,99999999' 
WAVCIS,ioos:station:WAVCIS:CSI03:3,2013-08-08T20:00:00Z,29.4412,-92.0613,10.0,0.741,193.0,,'11111222,11111222,99999999' 
WAVCIS,ioos:station:WAVCIS:CSI03:3,2013-08-08T21:00:00Z,29.4412,-92.0613,10.0,0.685,196.0,,'11111222,11111222,99999999' 
WAVCIS,ioos:station:WAVCIS:CSI03:3,2013-08-08T22:00:00Z,29.4412,-92.0613,10.0,0.782,194.0,,'11111222,11111222,99999999' 
WAVCIS,ioos:station:WAVCIS:CSI03:3,2013-08-08T23:00:00Z,29.4412,-92.0613,10.0,1.175,192.0,,'11111222,11111222,99999999' 
WAVCIS,ioos:station:WAVCIS:CSI03:3,2013-08-09T00:00:00Z,29.4412,-92.0613,10.0,1.331,228.0,,'11111222,11111222,99999999' 
WAVCIS,ioos:station:WAVCIS:CSI03:3,2013-08-09T01:00:00Z,29.4412,-92.0613,10.0,1.084,249.0,,'11111222,11111222,99999999' 
WAVCIS,ioos:station:WAVCIS:CSI03:3,2013-08-09T02:00:00Z,29.4412,-92.0613,10.0,1.34,180.0,,'11111222,11111222,99999999' 
WAVCIS,ioos:station:WAVCIS:CSI03:3,2013-08-09T03:00:00Z,29.4412,-92.0613,10.0,2.183,181.0,,'11111222,11111222,99999999' 
WAVCIS,ioos:station:WAVCIS:CSI03:3,2013-08-09T04:00:00Z,29.4412,-92.0613,10.0,2.309,172.0,,'11111222,11111222,99999999' 